Location: Newark
(42.9858°N, 0.6717°E)
Time: 14:43:45
(UTC+00:00)

S-56A Canister/Altair - Pass Details

Date: 26 November 2019
Orbit: 633 x 2499 km, 38.9° (Epoch: 04 December)

Event Time Altitude Azimuth Distance (km) Brightness Sun altitude
Rises 15:33:03 0° 249° (WSW) 5,946 13.8 7.3°
Reaches altitude 10° 15:37:17 10° 247° (WSW) 4,758 13.6 6.7°
Maximum altitude 15:49:50 65° 170° (S) 1,830 9.7 4.8°
Drops below altitude 10° 15:58:12 10° 90° (E) 3,268 10.3 3.5°
Sets 16:00:36 0° 88° (E) 4,024 10.7 3.2°
